User: anonymous
Location: Turtle Rock Observatory
(36.6913°N, 81.9708°W)
Time: 19:56:09
(UTC-04:00)
Language:

TITAN 4B R/B - Orbit

View from above orbital plane
View from above orbital plane
View from above satellite
View from above satellite

Ground track
Ground track

The orbit data is extracted from the following two-line orbital elements,

1 28647U 05016B   14113.07591012 0.00007500  00000-0  49471-3 0    07
2 28647  57.0066 355.9999 0134962  62.7230 297.2770 14.99781601    07
Epoch (UTC): 23 April 2014 01:49:18
Eccentricity: 0.0134962
inclination: 57.0066°
perigee height: 474 km
apogee height: 661 km
right ascension of ascending node: 355.9999°
argument of perigee: 62.7230°
revolutions per day: 14.99781601
mean anomaly at epoch: 297.2770°
orbit number at epoch: 0

The dashed part of the orbit path shows where the satellite is in the earth's shadow,  

DLR